Погода в Шаки

Погода в Шаки : погода сейчас, прогноз погоды и архив. Всё, что Вы хотите узнать о погоде в Шаки!

Поиск расширенной информации на нашем сайте:

Другие новости

Новости СМИ2

Главная страница сайта

Новости сайта

03.07.2017

Напоминаем, что на нашем специализированном сайте Метеоцентр.Азия вы можете получить высокодетализированные автоматические прогнозы погоды по пунктам России, СНГ и мира в авиационном формате (включающие направление и скорость ветра, видимость, явления погоды, количество и форму облачности, нижнюю и верхнюю границу облачности).

Рекомендуем: удобные сауны города екатеринбурга

Погода в Шаки - сегодня

Время (UTC), дата Ветер
(°,м/с) 
Видим.   Явления Облачность Т
(°С)
Тd
(°С)
f(%) Тe
(°С)
Pmin
(гПа)
dP
(гПа)
Po
(мм)
O2
(г/м3)
Тmin Tmax R s Состояние
почвы
03 13.08.18 220 (ЮЗ) 10 км    9/9 600 м 
[Sc]
+18.3 +13.9 76 +28  1012.4  0.6  705  263           
09 13.08.18 200 (Ю) 10 км    10/10 600 м 
[Sc]
+22.9 +14.9 61 +33  1011.7  0.1  705  259           
12 13.08.18 170 (Ю) 10 км    10/10 600 м 
[Sc]
+24.6 +15 55 +35  1010.5  -0.7  705  257           
15 13.08.18 220 (ЮЗ) 10 км    9/9 600 м 
[Sc]
+23.1 +16.8 68 +37  1010.2  -0.5  704  258           
21 13.08.18 190 (Ю) 10 км    10/10 600 м 
[Sc]
+21 +14.9 68 +31  1013.3  1.1  706  261           
00 14.08.18 060 (СВ) 10 км    10/10 600 м 
[Sc]
+19.2 +14.2 73 +30  1013.3  -0.5  706  263           
03 14.08.18 130 (ЮВ) 10 км    8/6 600 м средняя 
[Sc|Ac trans]
+19.5 +14.3 72 +30  1013.8  0.6  706  263           
09 14.08.18 140 (ЮВ) 10 км    9/9 600 м 
[Sc]
+21.7 +13.8 61 +30  1015.2  1.2  708  261           
12 14.08.18 040 (СВ) 10 км    9/9 600 м 
[Sc]
+22.1 +14.3 61 +31  1014.1  -1  707  261           
15 14.08.18 060 (СВ) 10 км    10/10 600 м 
[Sc]
+21.9 +14.2 62 +22  1014  -0.1             
18 14.08.18 120 (ЮВ) 10 км    10/10 600 м 
[Sc]
+20.8 +13.5 63 +28  1015  0.7  707  262    +22.9       
21 14.08.18 150 (ЮВ) 10 км  слаб. дождь  10/10 600 м 
[Frnb|Ns]
+18.5 +16.5 88 +33  1016.8  1.2  708  264           
00 15.08.18 020 (С) 10 км  в посл. час дождь  10/10 600 м 
[Frnb|Ns]
+18.6 +15.8 84 +32  1015.2  -1.5  707  263           
03 15.08.18 030 (СВ) 10 км    10/10 600 м 
[Sc]
+18.7 +15.1 80 +30  1015.5  0.3  707  263           
09 15.08.18 270 (З) 10 км    8/6 600 м средняя 
[Sc|Ac und]
+21.7 +12.7 57 +28  1015.5  0.3  708  262           
12 15.08.18 070 (В) 10 км    10/10 600 м 
[Sc]
+23.2 +13.6 55 +31  1014.4  -0.6  707  260           
15 15.08.18 120 (ЮВ) 10 км    8/5 600 м средняя 
[Sc|Ac und]
+24.5 +13.4 50 +32  1014.1  707  259           
21 15.08.18 050 (СВ) 20000 м    9/0 
[Sc]
+20.9 +13.6 63 +29  1015.9  0.1  708  262           
00 16.08.18 030 (СВ) 20000 м    ясно 
+19.1 +12.5 66 +27  1016.4  708  264           
03 16.08.18 060 (СВ) 20000 м    5/0 средняя 
[Ac und]
+18.3 +11.3 64 +24  1016.8  0.1  708  265           
06 16.08.18 240 (ЮЗ) 20000 м    ясно 
+23.9 +14.7 56 +34  1015.6  0.3  708  259  +18.1         
09 16.08.18 280 (З) 20000 м    8/0 
[Cu med, cong]
+25.9 +14.6 50 +35  1014.4  -0.6  708  257           
12 16.08.18 270 (З) 20000 м    5/0 средняя 
[Cu med, cong|Ac und]
+28 +14.9 45 +38  1011.9  -1.9  706  255           
15 16.08.18 020 (С) 20000 м    5/0 средняя 
[Ac und]
+27.6 +15.1 46 +38  1011.6  -0.4  706  255           
21 16.08.18 030 (СВ) 20000 м    ясно 
+21 +14.1 65 +30  1013.6  -0.1  706  261           
Время (UTC), дата Ветер
(°,м/с) 
Видим.   Явления Облачность Т
(°С)
Тd
(°С)
f(%) Тe
(°С)
Pmin
(гПа)
dP
(гПа)
Po
(мм)
O2
(г/м3)
Тmin Tmax R s Состояние
почвы

Для получения пояснительной информации подведите курсор к названию столбца.

ПОГОДА в Шаки - архив

Всё, что Вы хотите узнать о погоде в Шаки - удобно и подробно!

Выберите нужную дату (начиная с 1 января 2015* года) и нажмите кнопку "Найти".
Будут отображены архивные сводки погоды по пункту Шаки, начиная с указанной даты.


Отображать данные в формате CSV (для использования в таблицах Excel)


Внимание! Наш архив погоды предназначен исключительно для личного некоммерческого использования в познавательных целях. Если Вам необходимы официальные справки о состоянии погоды (для производственных, юридических, коммерческих и т.п. целей), обращайтесь в органы Росгидромета.

*Примечание: данная дата относится к архиву по метеостанциям СССР (Россия, СНГ, Балтия).
Архив по метеостанциям Зарубежной Европы и Азии (кроме Китая) хранится 10 дней, по другим регионам земного шара (Китай, Африка, Америка, Австралия, Океания) - 1 день.

Шаки - район местоположения метеостанции


Название, широта, долгота, высота метеостанции:
Шаки 41.2°ш. 47.2°д. 641 м над ур. моря [Азербайджан]

Дополнительная информация

В oтличие oт бoльшинства пoгoдных сайтoв мы публикуем пoдрoбную метеoинфoрмацию в детальнoм прoфессиoнальнoм фoрмате.

Характеристики температуры и влажнoсти вoздуха измеряются на высoте 2 м в тени вдали oт зданий и деревьев.
Скoрoсть ветра измеряется на высoте 10 м (на урoвне рoста челoвека скoрoсть ветра ниже в 1.5-2 раза). Если метеoстанция нахoдится в гoрoде или в лесу, тo скoрoсть ветра занижена на 2-4 м/с пo сравнению с oткрытым местoм. Скoрoсть ветра над акватoриями крупных рек и oзёр, а также на вершинах хoлмoв на 2-5 м/с выше, чем в oбычных услoвиях.
Атмoсфернoе давление в разных тoчках местнoсти мoжет значительнo oтличаться oт давления на метеoстанции, в зависимoсти oт услoвий рельефа (при пoдъёме на 10 м давление пoнижается примернo на 1 мм рт.ст.).